{"data":{"norad_id":65539,"epoch":"2026-05-25T04:13:33.127104Z","epoch_age_seconds":63257,"freshness":"FRESH","line1":"1 65539U 25200V   26145.17607786 -.00010258  00000+0 -70839-3 0  9994","line2":"2 65539  97.4528 214.8824 0002102 197.2257 162.8899 15.05624909 40640","mean_motion":15.05624909,"eccentricity":0.0002102,"inclination_deg":97.4528,"raan_deg":214.8824,"arg_perigee_deg":197.2257,"mean_anomaly_deg":162.8899,"bstar":-0.00070839,"rev_number":4064,"period_min":95.641350736978,"perigee_km":548.13191144281,"apogee_km":551.04432708295,"semimajor_km":6927.7251192629,"source":"CELESTRAK","updated_at":"2026-05-25T13:38:20.850438Z"}}